Murray, KY

11:52 AM CST on December 12, 2019 (GMT -0600)
Kyle-Oakley

Weather History for KCEY - October, 2019

Change the Weather History Date:

Wednesday, October 30, 2019

  Actual Average (WUND) Record (WUND)
Temperature  
Mean Temperature 52 °F -  
Max Temperature 55 °F - - (-1)
Min Temperature 50 °F - - (-1)
Degree Days  
Heating Degree Days 12    
Growing Degree Days 2 (Base 50)    
Moisture  
Dew Point 52 °F    
Average Humidity 100    
Maximum Humidity 100    
Minimum Humidity 100    
Precipitation  
Precipitation 0.79 in - - ()
Sea Level Pressure  
Sea Level Pressure 29.97 in    
Wind  
Wind Speed 6 mph (North)    
Max Wind Speed 12 mph    
Max Gust Speed -    
Visibility 5 miles    
Events      
Averages and records for this station are not official NWS values.
T = Trace of Precipitation, MM = Missing Value Source: NWS Daily Summary

Daily Weather History Graph

Daily Weather History Graph

Search for Another Location

Airport or City:

Astronomy

Oct. 30, 2019 Rise Set
Actual Time 7:14 AM CDT 5:58 PM CDT
Civil Twilight 6:48 AM CDT 6:25 PM CDT
Nautical Twilight 6:17 AM CDT 6:55 PM CDT
Astronomical Twilight 5:47 AM CDT 7:26 PM CDT
Moon 9:54 AM CDT (10/30) 8:10 PM CDT (10/30)
Length of Visible Light 11h 37m
Length of Day
10h 44m
Waxing Crescent, 9% of the Moon is Illuminated
Oct 30
Waxing Crescent
Nov 4
First Quarter
Nov 12
Full
Nov 19
Last Quarter
Nov 26
New

Hourly Weather History & Observations

Time (CDT) Temp. Dew Point Humidity Pressure Visibility Wind Dir Wind Speed Gust Speed Precip Events Conditions
12:15 AM 53.6 °F 53.6 °F 100% 30.12 in 10.0 mi ENE 3.5 mph - N/A   Partly Cloudy
12:35 AM 53.6 °F 53.6 °F 100% 30.11 in 10.0 mi NE 6.9 mph - N/A   Mostly Cloudy
12:55 AM 53.6 °F 53.6 °F 100% 30.11 in 10.0 mi NNE 5.8 mph - N/A   Overcast
1:15 AM 53.6 °F 53.6 °F 100% 30.10 in 10.0 mi North 4.6 mph - N/A   Overcast
1:35 AM 53.6 °F 53.6 °F 100% 30.08 in 10.0 mi NNE 8.1 mph - N/A   Unknown
1:55 AM 53.6 °F 53.6 °F 100% 30.09 in 10.0 mi NNW 5.8 mph - N/A   Unknown
2:15 AM 53.6 °F 53.6 °F 100% 30.08 in 10.0 mi North 8.1 mph - N/A   Unknown
2:35 AM 53.6 °F 53.6 °F 100% 30.07 in 10.0 mi North 6.9 mph - N/A   Overcast
2:55 AM 53.6 °F 53.6 °F 100% 30.08 in 10.0 mi NNW 6.9 mph - N/A   Mostly Cloudy
3:15 AM 51.8 °F 51.8 °F 100% 30.07 in 10.0 mi North 8.1 mph - N/A   Overcast
3:35 AM 51.8 °F 51.8 °F 100% 30.07 in 10.0 mi North 5.8 mph - N/A   Overcast
3:55 AM 50.0 °F 50.0 °F 100% 30.06 in 10.0 mi North 8.1 mph - N/A   Overcast
4:15 AM 50.0 °F 50.0 °F 100% 30.05 in 8.0 mi NNE 10.4 mph - N/A   Unknown
4:35 AM 50.0 °F 50.0 °F 100% 30.05 in 10.0 mi NNE 6.9 mph - N/A   Overcast
4:55 AM 50.0 °F 50.0 °F 100% 30.04 in 10.0 mi NE 6.9 mph - N/A   Overcast
5:15 AM 50.0 °F 50.0 °F 100% 30.05 in 9.0 mi NNE 4.6 mph - N/A   Overcast
5:55 AM 50.0 °F 50.0 °F 100% 30.03 in 8.0 mi NE 8.1 mph - N/A   Overcast
6:15 AM 50.0 °F 50.0 °F 100% 30.03 in 5.0 mi North 6.9 mph - 0.01 in   Unknown
6:35 AM 50.0 °F 50.0 °F 100% 30.03 in 9.0 mi NNE 4.6 mph - 0.02 in   Overcast
6:55 AM 50.0 °F 50.0 °F 100% 30.03 in 8.0 mi North 6.9 mph - 0.02 in   Overcast
7:15 AM 50.0 °F 50.0 °F 100% 30.03 in 4.0 mi North 6.9 mph - N/A   Unknown
7:35 AM 50.0 °F 50.0 °F 100% 30.02 in 2.0 mi North 5.8 mph - N/A   Overcast
7:55 AM 50.0 °F 50.0 °F 100% 30.03 in 1.0 mi NE 6.9 mph - N/A   Overcast
8:35 AM 51.8 °F 51.8 °F 100% 30.02 in 2.5 mi East 6.9 mph - 0.10 in   Overcast
8:55 AM 51.8 °F 51.8 °F 100% 30.01 in 2.5 mi NE 6.9 mph - 0.14 in   Overcast
9:15 AM 51.8 °F 51.8 °F 100% 30.00 in 2.0 mi North 4.6 mph - 0.02 in   Overcast
9:35 AM 51.8 °F 51.8 °F 100% 30.01 in 2.0 mi Calm Calm - 0.09 in   Overcast
9:55 AM 51.8 °F 51.8 °F 100% 30.00 in 2.0 mi Calm Calm - 0.19 in   Overcast
10:55 AM 53.6 °F 53.6 °F 100% 30.00 in 1.2 mi Calm Calm - 0.12 in   Overcast
11:15 AM 53.6 °F 53.6 °F 100% 29.99 in 1.8 mi NE 5.8 mph - 0.09 in   Overcast
11:35 AM 53.6 °F 53.6 °F 100% 29.98 in 3.0 mi NNE 6.9 mph - 0.15 in   Overcast
11:55 AM 53.6 °F 53.6 °F 100% 29.98 in 3.0 mi NNE 4.6 mph - 0.22 in   Overcast
12:15 PM 53.6 °F 53.6 °F 100% 29.96 in 4.0 mi North 5.8 mph - 0.03 in   Overcast
12:35 PM 53.6 °F 53.6 °F 100% 29.94 in 6.0 mi NNE 6.9 mph - 0.06 in   Overcast
12:55 PM 53.6 °F 53.6 °F 100% 29.90 in 10.0 mi East 6.9 mph - 0.07 in   Overcast
1:15 PM 55.4 °F 55.4 °F 100% 29.89 in 10.0 mi NE 6.9 mph - 0.01 in   Overcast
1:35 PM 55.4 °F 55.4 °F 100% 29.89 in 10.0 mi NNE 4.6 mph - 0.01 in   Overcast
1:55 PM 55.4 °F 55.4 °F 100% 29.92 in 10.0 mi WNW 11.5 mph - 0.01 in   Overcast
2:15 PM 53.6 °F 53.6 °F 100% 29.92 in 10.0 mi NW 10.4 mph - N/A   Overcast
2:35 PM 53.6 °F 53.6 °F 100% 29.92 in 7.0 mi NW 10.4 mph - N/A   Overcast
2:55 PM 53.6 °F 53.6 °F 100% 29.91 in 3.0 mi NNW 9.2 mph - N/A   Overcast
3:35 PM 53.6 °F 53.6 °F 100% 29.90 in 2.5 mi NW 11.5 mph - N/A   Overcast
3:55 PM 53.6 °F 53.6 °F 100% 29.91 in 2.0 mi NW 5.8 mph - N/A   Overcast
4:15 PM 53.6 °F 53.6 °F 100% 29.92 in 6.0 mi NW 6.9 mph - N/A   Overcast
4:35 PM 53.6 °F 53.6 °F 100% 29.91 in 5.0 mi NW 10.4 mph - N/A   Overcast
4:55 PM 53.6 °F 53.6 °F 100% 29.92 in 1.8 mi NW 5.8 mph - N/A   Overcast
5:15 PM 53.6 °F 53.6 °F 100% 29.92 in 0.5 mi NW 4.6 mph - N/A   Overcast
5:35 PM 53.6 °F 53.6 °F 100% 29.92 in 0.2 mi NW 3.5 mph - N/A   Overcast
5:55 PM 51.8 °F 51.8 °F 100% 29.92 in 0.2 mi NW 3.5 mph - N/A   Overcast
6:15 PM 51.8 °F 51.8 °F 100% 29.93 in 0.5 mi WNW 3.5 mph - N/A   Overcast
6:35 PM 51.8 °F 51.8 °F 100% 29.94 in 1.2 mi WNW 4.6 mph - N/A   Overcast
6:55 PM 51.8 °F 51.8 °F 100% 29.93 in 2.0 mi NNW 3.5 mph - 0.01 in   Overcast
7:15 PM 51.8 °F 51.8 °F 100% 29.91 in 1.2 mi NNW 5.8 mph - 0.01 in   Overcast
7:35 PM 51.8 °F 51.8 °F 100% 29.91 in 1.5 mi North 4.6 mph - 0.01 in   Unknown
7:55 PM 51.8 °F 51.8 °F 100% 29.89 in 0.8 mi NNE 5.8 mph - 0.01 in   Unknown
8:15 PM 51.8 °F 51.8 °F 100% 29.89 in 1.0 mi NNE 4.6 mph - N/A   Overcast
8:35 PM 51.8 °F 51.8 °F 100% 29.90 in 0.8 mi NW 3.5 mph - N/A   Overcast
8:55 PM 51.8 °F 51.8 °F 100% 29.92 in 2.5 mi WNW 5.8 mph - N/A   Overcast
9:35 PM 51.8 °F 51.8 °F 100% 29.92 in 0.5 mi WNW 4.6 mph - N/A   Overcast
9:55 PM 51.8 °F 51.8 °F 100% 29.91 in 0.5 mi NW 4.6 mph - N/A   Overcast
10:15 PM 50.0 °F 50.0 °F 100% 29.90 in 0.8 mi NNW 4.6 mph - N/A   Overcast
10:35 PM 50.0 °F 50.0 °F 100% 29.88 in 0.5 mi NNE 4.6 mph - N/A   Overcast
10:55 PM 50.0 °F 50.0 °F 100% 29.88 in 0.8 mi North 5.8 mph - N/A   Overcast
11:15 PM 50.0 °F 50.0 °F 100% 29.87 in 0.8 mi North 4.6 mph - N/A   Unknown
11:35 PM 50.0 °F 50.0 °F 100% 29.87 in 0.5 mi Calm Calm - N/A   Overcast
11:55 PM 50.0 °F 50.0 °F 100% 29.86 in 0.8 mi Calm Calm - N/A   Overcast